Location: *
(34.8620°S, 39.3380°E)
Time: 08:00:33
(UTC+00:00)

Okean O Rocket - Pass Details

Date: 27 July 2021
Orbit: 622 x 645 km, 98.2° (Epoch: 22 September)

Event Time Altitude Azimuth Distance (km) Brightness Sun altitude
Rises 02:27:53 0° 52° (NE) 2,932 6.0 -23.1°
Reaches altitude 10° 02:30:43 10° 72° (ENE) 2,028 5.3 -22.6°
Maximum altitude 02:33:36 17° 113° (ESE) 1,600 4.4 -22.0°
Drops below altitude 10° 02:36:30 10° 154° (SSE) 2,036 4.4 -21.4°
Sets 02:39:19 0° 173° (S) 2,949 5.0 -20.8°
